This is the latest recevied weather packets stored in our database for station/object KQ4OSL. If no packets are shown the sender has not sent any weather packets the latest 10 day(s).
| Time | Temp. | Humidity | Pressure | Rain* | Wind** | Luminosity | Snow |
|---|---|---|---|---|---|---|---|
| 1787797331 | 23.33° C | 91% | 1017.6 hPa | 0 mm | - | 0 W/m² | - |
| 1787797026 | 23.33° C | 90% | 1017.6 hPa | 0 mm | - | 0 W/m² | - |
| 1787796721 | 23.33° C | 90% | 1017.7 hPa | 0 mm | - | 0 W/m² | - |
| 1787796416 | 23.33° C | 90% | 1017.8 hPa | 0 mm | - | 0 W/m² | - |
| 1787796112 | 23.89° C | 90% | 1017.5 hPa | 0 mm | - | 0 W/m² | - |
| 1787795809 | 23.89° C | 86% | 1017.7 hPa | 0 mm | - | 0 W/m² | - |
| 1787795504 | 23.89° C | 88% | 1017.4 hPa | 0 mm | - | 0 W/m² | - |
| 1787795203 | 24.44° C | 88% | 1017.3 hPa | 0 mm | - | 0 W/m² | - |
| 1787794902 | 24.44° C | 87% | 1017.4 hPa | 0 mm | - | 0 W/m² | - |
| 1787794598 | 24.44° C | 87% | 1017.4 hPa | 0 mm | - | 0 W/m² | - |
| 1787794294 | 24.44° C | 85% | 1017.3 hPa | 0 mm | - | 0 W/m² | - |
| 1787793989 | 24.44° C | 85% | 1017.5 hPa | 0 mm | - | 0 W/m² | - |
| 1787793686 | 25° C | 86% | 1017.5 hPa | 0 mm | - | 0 W/m² | - |
| 1787793385 | 24.44° C | 86% | 1017.7 hPa | 0 mm | - | 0 W/m² | - |
| 1787793081 | 24.44° C | 89% | 1017.5 hPa | 0 mm | - | 0 W/m² | - |
| 1787792781 | 24.44° C | 88% | 1017.7 hPa | 0 mm | - | 0 W/m² | - |
| 1787792480 | 25° C | 87% | 1017.4 hPa | 0 mm | - | 0 W/m² | - |
| 1787792178 | 25° C | 85% | 1017.5 hPa | 0 mm | - | 0 W/m² | - |
| 1787791877 | 25.56° C | 82% | 1017.4 hPa | 0 mm | - | 0 W/m² | - |
| 1787791571 | 26.11° C | 81% | 1017.5 hPa | 0 mm | - | 0 W/m² | - |
| 1787791267 | 26.11° C | 80% | 1017.9 hPa | 0 mm | - | 0 W/m² | - |
| 1787790962 | 26.11° C | 79% | 1017.7 hPa | 0 mm | - | 0 W/m² | - |
| 1787790657 | 26.11° C | 80% | 1017.6 hPa | 0 mm | - | 0 W/m² | - |
| 1787790352 | 26.67° C | 79% | 1017.5 hPa | 0 mm | - | 0 W/m² | - |
| 1787790048 | 26.67° C | 79% | 1017.4 hPa | 0 mm | - | 0 W/m² | - |
* Rain latest hour (hover to see other rain measurements)
** Current wind speed in m/s (hover to see current wind gust speed)